Regional Weather Roundup
Issued by NWS Newport/Morehead, NC

Current Version | Previous Version | Graphics & Text | Print | Product List | Glossary Off
Versions: 1 2 3 4 5 6 7 8 9 10 11 12 13 14 15 16 17 18 19 20 21 22 23 24 25 26 27 28 29 30 31 32 33 34 35 36 37 38 39 40 41 42 43 44 45 46 47 48 49 50

000
ASUS42 KMHX 232213
RWRMHX
WEATHER ROUNDUP FOR EASTERN NORTH CAROLINA
NATIONAL WEATHER SERVICE NEWPORT/MOREHEAD CITY NC
600 PM EDT SUN APR 23 2017

NOTE: "FAIR" INDICATES FEW OR NO CLOUDS BELOW 12,000 FEET
WITH NO SIGNIFICANT WEATHER AND/OR OBSTRUCTIONS TO VISIBILITY

NCZ015>017-031-032-045>047-102-103-232300-
NORTH COAST

CITY           SKY/WX    TMP DP  RH WIND       PRES   REMARKS
EDENTON        CLOUDY    58  53  83 NE10G16   30.02S
ELIZABETH CITY RAIN      56  54  93 NE15      30.04R FOG
KITTY HAWK     CLOUDY    56  53  89 NE9G18    29.99S
MANTEO         CLOUDY    57  53  86 E18G26    30.00S

$$

NCZ045>047-081-094-103-104-232300-
CENTRAL COAST

CITY           SKY/WX    TMP DP  RH WIND       PRES   REMARKS
FRISCO         CLOUDY    63  57  81 NE14G23   29.95F HAZE

$$

NCZ095-097-098-100-101-232300-
SOUTHERN COAST

CITY           SKY/WX    TMP DP  RH WIND       PRES   REMARKS
BEAUFORT       CLOUDY    64  61  90 NE14G25   29.93F
CEDAR ISLAND   NOT AVBL
JACKSONVILLE   CLOUDY    61  60  97 NE9       29.93F
PINEY ISLAND   CLOUDY   N/A N/A N/A NE21G30   29.94F
WILMINGTON     CLOUDY    65  62  90 NE12      29.90F


$$

NCZ011>013-027>030-043-044-078>080-089-090>093-098-232300-
COASTAL PLAIN

CITY           SKY/WX    TMP DP  RH WIND       PRES   REMARKS
AHOSKIE          N/A     53  52  95 NE7       30.02F
CLINTON        CLOUDY    58  56  94 NE7       29.95S
ELIZABETHTOWN  CLOUDY    60  57  90 NE6       29.91F
GOLDSBORO      LGT RAIN  57  57 100 NE10      29.95S
GREENVILLE     CLOUDY    57  54  88 E9G16     30.00F FOG
HAVELOCK       NOT AVBL
KENANSVILLE    CLOUDY    59  55  88 E5        29.95S
KINSTON        LGT RAIN  57  55  94 NE13G18   29.98S
NEW BERN       CLOUDY    59  58  96 NE12      29.96F
RICHLANDS      CLOUDY    59  57  93 NE14      29.94F
ROCKY MOUNT    LGT RAIN  55  53  93 NE10      29.99S
WASHINGTON     LGT RAIN  56  55  96 NE9       29.99S
WHITEVILLE     CLOUDY    62  59  91 NE12      29.89S

$$

AMZ130-135-150-152-154-156-158-170-250-252-270-ANZ085-086-088-633-658-670-232300-
MARINE OBSERVATIONS

STATION/POSITION TIME  TEMP    WIND        PRES    WAVE   SWELL
                       AIR SEA DIR/SP/G            HT/PER HT/PER
                 (UTC) (F)     (DEG/KT/KT) (MB)    (FT/S) (FT/S)
CHESAPEAKE LIGHT NOT AVBL
64 E VA BEACH    2150   55 53   50/ 17/ 21 1016.2    6/ 7   3/11
DUCK             2136   56 63   40/ 22/ 25 1015.4
2 E DUCK         2200      60                N/A     6/ 6   2/11
OREGON INLET     2148           30/ 12/ 20 1015.1
13E OREGON INLT  2148      56                N/A     6/ 5   3/11
HATTERAS CG      2136   61 68   40/ 16/ 24 1014.0
DIAMOND BUOY     2150   67 76   20/ 19/ 25 1012.9    7/ 9   3/11
CAPE LOOKOUT     2200   63      30/ 20/ 25 1013.4
BEAUFORT LAB     2136   63 65   30/ 11/ 20 1012.7
30 SE NEW RVR IN 2108   65      50/ 21/ 27 1012.2
30 SE NEW RVR IN 2143      71                N/A     5/ 5   2/13
27 SE WRIGHTSVLE 2108   68 71   90/ 19/ 27 1011.1
5 SE WRIGHTSVLE  2108   67 69   70/ 14/ 23 1012.4
225 S CAPE HAT   2150   74 75  160/ 14/ 16 1013.4    4/12   3/12
41 SE CHARLESTON 2150   75 75  160/ 14/ 17 1009.3    3/ 6   2/11

$$



USA.gov is the U.S. government's official web portal to all federal, state and local government web resources and services.